Retour au catalogue

STARLINK-36135

ActifCommunicationsVLEO
NORAD 66986·PAYLOAD·🇺🇸 United States

Lancé Dec 8, 2025 depuis Cape Canaveral Space Force Station

Loading…

Prochains Passages (prochaines 24 heures)

TLE

FraisSource: CelesTrak SupGP

Époque: Sep 15, 2026, 03:08 UTC

1 66986C 25288AD  26258.13104167 -.00013448  00000+0 -48694-3 0  2589
2 66986  43.0042  33.6252 0001464 268.9360 302.0116 15.27595823    11

Suivez STARLINK-36135 en temps réel avec AllMySat

Download on the App Store